ARIANE 1 DEB, 25098

Orbit data source: Space-Track

ARIANE 1 DEB, 25098 is space debris in HEO originally from a launch on Mon, 24 Dec 1979 UTC launched from the French Guiana (FRGUI). Debris objects in space refer to the collection of defunct objects orbiting the Earth. Examples of debris include non-operational satellites, rocket bodies, and fragments generated from explosions, collisions, or faulty payload assembly.

Loading next visibility...
Identifier
25098, 1979-104D
Orbit
HEO
Country
Flag of FRFR
Related business
Manufacturer
ESA
Mission
Spacecraft
Bus & Motor
Unknown
Mass
Unknown
Launch date (UTC)
1979-12-24 (46 years ago)
Launch vehicle
Unknown
Launch site
French Guiana (FRGUI)
Object type
Payload
Rocket body
Debris
Shape & HBR
Unknown
Radar Cross Section
Medium (>0.1 m² and <1 m²)

Expand to show TLE details & history
Last TLE update: 18 hours ago

TLE from 18 hours ago
0 ARIANE 1 DEB
1 25098U 79104D   25259.14884335 -.00000210  00000-0 -60288-3 0  9996
2 25098  17.5261 212.3051 5351670 208.7708 106.5935  4.79099963430520
Epoch: 2025-09-16T03:34Z
TLE epoch observation values (Epoch: 2025-09-16T03:34:20.065Z)
Latitude
0.00001°
Longitude
163.36113°
Altitude
13,600.459 km
Speed
3.618 km/s
True Right ascension
14h 09m 09s
True Declination
0° 00' 00"
Sunlit
Object was in daylight at epoch
Visualization orbit readout
Latitude
Unknown
Longitude
Unknown
Altitude
Unknown
Speed
Unknown
Apparent Right ascension
Unknown
Apparent Declination
Unknown
Sunlit
N/A
Visualization observer readout
Local Sidereal Time
14:30:59
Azimuth
Unknown
Elevation
Unknown
Doppler factor
Unknown
Orbital elements
Apogee altitude
16,446.177 km
Perigee altitude
532.834 km
Semi-major axis
14,867.643 km
Eccentricity
0.53517
Inclination
17.5261°
RAAN
212.3051°
Arg. of periapsis
208.7708°
True anomaly
151.25627°
Mean anomaly
106.5935°
Eccentric anomaly
130.06143°
Mean motion
1.19724 °/min
Orbital period
300.69 mins
BSTAR
-0.00060288
Loading maneuver chart data...
Computing Atmospheric mass density...
Loading historical data...
Loading historical data...
Loading historical data...
Loading historical data...
Loading historical data...
Loading historical data...
Loading historical data...

Documentation

Showing up to 5 results
|